Wind_Speed
22 21 24 24 25 28 33 37 39 39 42 40 40 40 37 34 26 23 21 18 19 18 17 22 32 40 52 60 68 76 80 82 81 80 80 83 82 84 84 85 88 87 84 82 80 76 73 69 70
22 25 24 25 26 28 33 36 36 36 40 41 36 41 42 40 29 24 26 23 18 13 18 22 25 30 40 49 57 68 75 84 85 86 85 85 86 86 88 88 89 89 89 87 85 81 78 76 73
22 24 24 27 29 32 35 34 37 35 36 40 38 39 44 38 29 30 27 27 21 29 20 19 20 23 29 41 51 59 65 76 85 90 91 90 90 90 90 91 92 92 90 91 92 89 84 82 80
21 23 25 27 29 33 38 38 34 31 33 37 38 36 41 37 36 37 36 36 34 33 31 25 23 30 32 34 42 48 55 62 69 83 90 94 96 96 94 95 94 95 95 92 92 93 89 87 86
20 19 22 25 30 33 35 36 27 30 31 35 32 33 36 37 38 39 39 40 42 40 38 31 26 19 24 24 31 38 46 56 64 73 84 92 96 99 100 101 101 99 98 96 94 93 91 92 90
22 24 21 24 22 27 33 33 27 31 30 33 28 29 33 36 36 40 40 43 46 44 44 42 39 34 32 31 26 29 37 44 53 65 73 81 91 99 103 105 106 106 104 102 100 97 95 92 95
28 24 25 27 26 26 29 30 28 30 29 32 25 24 28 31 37 40 39 42 48 48 48 43 40 41 40 37 39 37 38 39 45 51 66 79 83 93 103 108 108 108 111 107 104 101 98 97 94
30 29 28 27 28 27 29 31 31 28 29 30 28 24 27 30 36 39 41 43 47 49 48 48 45 41 39 40 40 41 46 47 48 51 50 62 79 89 101 110 114 115 114 113 111 107 102 100 99
32 36 32 32 30 27 30 32 34 25 28 29 23 25 25 34 39 38 39 41 44 49 52 52 51 43 40 40 41 42 44 51 52 52 53 58 67 83 98 108 117 120 120 118 114 112 108 103 100
32 40 35 35 32 29 31 33 37 28 27 28 22 24 29 38 39 39 41 43 47 51 53 54 54 49 45 46 47 48 50 54 56 61 62 64 72 80 89 99 109 119 121 121 118 114 112 109 105
36 39 34 34 32 31 33 35 35 31 28 29 26 26 34 41 41 40 42 47 48 50 54 58 56 54 56 57 56 55 56 57 59 61 64 68 75 80 90 94 96 102 111 116 120 115 115 111 108
39 38 41 37 29 32 34 35 35 31 31 31 31 33 39 42 39 43 43 46 47 49 55 58 60 59 57 57 57 59 63 62 66 67 67 73 80 80 80 89 91 94 97 105 117 118 117 112 111
38 39 40 33 30 29 31 31 33 30 30 33 36 38 38 38 38 38 41 47 48 51 54 59 59 61 59 62 62 65 68 69 74 71 75 70 74 76 76 72 82 75 87 92 100 116 120 117 113
35 32 35 34 28 28 32 28 30 30 35 32 33 33 35 37 42 42 43 47 47 54 55 59 62 62 63 64 65 69 72 81 80 81 80 73 72 69 70 69 77 73 71 80 87 99 115 123 118
29 29 33 32 28 26 31 27 26 29 31 34 31 32 36 39 45 43 45 45 50 56 58 61 65 65 67 70 70 73 82 87 84 87 83 77 68 60 59 61 67 75 71 76 80 86 103 120 121
27 34 28 28 28 31 30 30 29 28 33 36 32 36 41 41 39 44 43 50 55 58 62 64 64 67 73 81 80 77 86 89 95 91 87 81 64 56 57 57 57 60 64 71 79 74 91 107 126
32 37 24 23 24 28 30 29 29 31 33 38 38 37 34 40 41 45 48 52 59 64 65 64 69 72 82 79 82 89 92 91 94 93 90 84 64 60 60 60 57 56 59 68 78 79 85 99 114
35 26 21 20 24 27 28 30 33 36 36 39 39 32 31 38 45 45 50 57 59 64 70 71 72 77 75 80 83 92 98 94 98 96 92 76 64 61 61 59 56 54 50 63 71 77 79 95 103
31 24 21 21 23 27 29 32 34 36 38 42 36 28 32 37 44 45 53 59 63 67 70 71 72 73 77 79 87 91 99 95 99 97 91 76 67 63 62 58 53 52 54 53 70 78 82 80 100
29 18 23 21 20 25 27 31 34 37 40 39 30 32 38 42 46 50 56 59 64 72 71 72 68 73 79 80 87 95 102 104 106 99 88 75 66 63 64 55 48 49 46 51 56 73 87 93 89
20 20 27 25 22 26 29 33 36 38 38 31 32 38 43 44 47 53 56 61 69 69 72 74 72 77 79 83 92 100 101 107 112 108 95 78 71 64 62 58 49 45 42 44 47 64 77 87 98
22 24 24 25 24 25 29 25 30 32 28 29 33 40 42 45 49 54 58 63 70 71 70 75 77 80 83 90 96 98 105 106 110 105 95 75 68 66 63 56 51 44 40 36 40 54 67 78 93
29 24 25 26 26 28 25 22 30 32 34 33 33 39 44 48 54 57 61 66 69 69 75 74 78 84 87 88 96 97 107 108 114 112 104 84 70 66 62 57 50 45 38 36 35 46 60 70 84
31 25 24 27 30 30 34 33 38 35 35 35 41 45 49 54 57 62 65 70 69 70 75 78 78 85 92 94 98 101 107 112 116 118 112 87 75 69 62 54 48 41 38 38 36 40 55 66 73
31 33 28 27 31 31 33 38 44 41 37 39 44 49 53 56 59 63 66 72 71 75 75 80 79 83 92 93 101 107 107 112 117 119 110 87 77 71 64 55 46 33 34 34 35 34 48 62 71
37 38 37 38 37 35 33 36 45 43 40 40 44 48 53 59 63 66 68 71 71 72 78 83 84 82 93 98 103 105 109 112 115 118 110 88 76 67 62 53 46 38 28 31 33 32 39 58 76
43 45 45 43 41 36 33 36 47 46 42 43 46 54 57 61 63 67 69 75 74 75 79 81 85 84 91 100 102 106 109 117 115 123 114 91 76 68 61 52 43 35 28 27 31 34 32 47 64
41 42 38 37 35 30 33 36 48 48 46 49 50 56 60 64 67 69 72 75 76 76 82 84 87 84 95 96 103 106 111 114 123 123 118 97 78 67 60 52 42 32 28 25 27 35 33 35 51
40 45 37 43 38 36 40 43 46 48 51 49 53 58 61 66 67 69 75 76 79 80 84 90 91 87 98 96 103 107 113 115 122 123 122 105 81 69 61 52 43 33 29 28 26 29 37 34 38
37 42 40 37 39 39 39 48 50 51 45 48 54 58 60 65 68 71 75 77 83 83 86 91 91 88 97 96 105 106 111 117 123 128 123 109 84 71 63 53 43 34 30 28 28 26 33 35 32
Wind_Direction
312 320 320 334 339 349 357 5 8 6 6 7 9 9 12 14 18 15 17 22 5 327 300 265 250 245 240 238 240 239 239 239 237 237 237 237 236 237 237 236 236 237 237 235 235 236 238 239 242
313 313 322 321 330 342 350 357 1 1 0 2 3 1 8 6 13 13 8 10 1 339 336 307 289 266 252 247 245 242 241 240 240 238 237 237 237 236 237 238 237 236 237 236 234 236 238 238 241
326 314 313 318 321 324 330 342 351 353 356 356 359 355 1 6 7 3 3 354 351 349 332 310 309 292 278 260 253 247 245 243 241 240 239 238 238 238 238 237 237 238 238 237 237 236 237 239 239
331 330 313 313 320 325 325 330 338 347 350 352 356 352 0 2 358 355 351 350 352 345 348 342 319 282 280 285 268 257 255 248 247 242 242 241 241 240 239 239 238 237 238 238 236 236 237 236 238
344 336 328 318 318 324 330 332 339 344 349 348 354 354 355 355 357 357 357 357 356 358 353 350 342 329 292 290 287 276 269 260 255 248 246 245 243 242 240 240 241 239 237 237 237 237 235 237 236
346 339 327 327 330 334 336 338 334 341 346 344 346 351 351 355 359 1 4 4 3 356 355 357 355 351 351 347 313 295 285 271 264 259 253 249 245 243 243 242 241 240 238 237 237 236 236 236 237
353 342 334 333 328 333 338 336 333 335 340 340 338 349 351 359 359 3 358 357 356 353 353 351 350 347 344 339 333 321 313 284 271 269 258 250 247 244 240 241 239 240 241 237 237 236 236 234 236
350 347 344 329 329 330 329 329 324 333 336 334 346 354 356 359 358 355 356 357 354 354 354 351 351 346 338 331 325 319 314 308 285 278 268 260 252 249 245 240 237 240 238 239 236 237 236 235 235
347 345 342 331 328 325 321 323 321 332 334 338 347 354 356 353 351 349 352 353 354 355 353 352 349 343 334 325 323 315 310 304 296 296 281 270 265 256 249 246 242 241 239 240 239 237 235 234 234
338 337 338 331 325 320 313 318 322 329 330 334 333 343 347 347 348 343 341 342 342 346 350 348 345 341 336 328 323 316 313 311 296 292 284 273 268 262 257 252 250 245 243 241 240 240 237 236 235
327 329 333 328 317 318 310 316 324 325 323 324 327 332 336 338 339 336 334 339 342 342 343 345 344 339 334 329 322 319 316 313 305 292 280 279 276 270 264 257 252 251 248 245 243 239 240 237 235
318 324 327 326 320 306 311 318 321 320 321 314 322 325 331 332 337 336 337 341 341 341 341 344 343 338 333 328 323 319 315 314 309 304 294 282 276 279 277 262 259 255 251 246 242 240 238 239 237
314 319 320 322 322 322 319 318 318 317 320 314 309 319 330 337 336 340 340 340 342 342 342 343 342 336 335 330 328 328 325 323 322 315 310 300 289 288 285 276 259 266 257 248 243 239 235 235 237
311 320 318 314 315 322 324 315 317 316 323 312 309 319 331 335 336 336 340 346 344 345 342 342 339 338 334 332 335 334 333 336 326 319 313 301 303 290 287 279 260 263 268 255 244 238 235 231 229
312 321 317 311 310 314 319 305 306 316 334 323 313 321 327 334 335 339 345 343 345 344 344 342 341 338 337 334 336 335 343 336 328 323 318 313 309 298 291 281 274 261 267 258 250 244 235 229 227
304 322 317 318 307 311 313 304 297 311 321 328 327 332 335 334 337 340 341 346 344 343 341 341 340 341 342 342 343 339 343 339 331 326 326 323 317 303 297 289 275 266 257 253 248 245 236 230 223
302 313 316 325 317 311 311 301 294 305 316 322 327 333 338 338 338 337 341 343 345 347 342 339 336 336 334 333 344 347 342 339 335 332 331 329 321 311 303 294 282 269 257 248 243 242 231 230 226
309 302 306 319 308 311 308 299 295 301 311 316 323 336 344 338 341 343 343 342 343 342 341 338 334 336 337 338 343 345 346 341 338 336 336 332 323 313 306 300 291 279 262 246 242 238 228 225 227
312 306 311 320 312 307 304 305 297 298 310 316 323 327 331 331 331 336 340 341 341 342 339 336 335 340 342 345 347 346 346 345 343 339 339 334 325 318 311 305 296 281 271 254 240 236 231 225 224
306 305 323 319 317 307 307 304 300 300 308 315 317 318 329 327 328 336 339 343 343 340 339 340 343 344 343 350 348 351 350 350 348 347 341 338 326 323 317 313 305 288 269 260 244 235 231 230 227
303 299 325 325 323 317 312 299 301 302 304 310 310 322 327 325 333 339 340 339 340 340 341 343 341 348 349 350 350 349 348 353 352 350 345 341 333 328 323 319 312 296 279 260 247 233 232 227 225
311 302 317 330 332 328 326 320 304 318 312 314 322 329 330 329 336 339 336 336 339 334 337 344 345 347 348 350 348 347 351 355 353 350 346 342 336 331 327 323 315 305 291 269 248 233 230 229 223
300 301 308 318 319 327 332 335 292 335 316 324 327 337 332 334 337 334 333 334 337 337 340 341 346 345 350 349 350 347 348 355 356 353 350 345 340 336 332 325 317 304 296 282 255 235 228 229 224
301 299 305 318 310 315 317 320 309 326 322 321 334 332 331 331 330 330 332 335 334 334 337 341 343 345 350 354 350 349 350 356 355 356 353 347 343 339 334 325 316 302 291 283 271 245 230 228 225
302 299 303 310 312 309 311 324 315 318 326 326 328 329 329 329 330 331 331 329 330 332 339 343 340 345 347 350 351 353 352 356 357 355 355 349 345 341 335 326 318 303 290 281 274 252 231 227 223
299 302 304 312 303 304 310 317 315 315 326 332 333 330 331 331 332 332 332 334 332 336 338 339 341 344 347 349 351 353 353 356 356 355 353 351 347 343 336 327 319 312 294 279 270 261 237 224 222
296 302 305 307 307 305 299 310 308 319 331 330 333 329 330 328 328 330 330 333 333 336 338 340 342 345 346 348 350 352 354 358 357 355 354 352 349 344 338 328 319 310 300 284 270 262 244 226 222
304 300 307 315 308 307 305 308 303 316 327 329 329 326 326 326 327 327 330 332 333 334 339 339 343 345 348 343 351 353 355 356 357 355 355 353 350 346 340 331 321 313 307 293 271 263 257 234 224
306 301 302 307 311 308 301 307 310 319 320 323 322 322 322 323 326 326 327 330 332 334 336 338 342 343 348 343 348 351 356 358 358 354 356 352 351 347 344 336 324 317 311 297 281 261 258 250 230
298 304 302 305 304 305 310 308 313 311 315 315 315 318 319 323 327 328 326 329 332 333 335 338 341 342 346 345 347 350 354 356 355 354 356 350 351 348 347 338 328 321 314 305 290 274 257 255 241
Height
10766 10761 10759 10757 10753 10749 10744 10738 10735 10731 10726 10721 10716 10710 10705 10701 10699 10696 10694 10689 10687 10685 10683 10681 10678 10676 10675 10674 10674 10677 10679 10681 10683 10686 10687 10689 10691 10691 10694 10697 10699 10702 10705 10709 10714 10717 10721 10724 10728
10765 10761 10755 10754 10752 10747 10742 10738 10734 10730 10724 10719 10715 10709 10703 10701 10697 10693 10690 10689 10689 10685 10681 10676 10673 10670 10668 10665 10664 10663 10664 10668 10671 10671 10672 10673 10675 10676 10679 10683 10683 10686 10692 10698 10702 10705 10709 10712 10716
10763 10759 10753 10751 10748 10745 10741 10737 10731 10726 10723 10718 10713 10706 10702 10699 10695 10691 10690 10687 10684 10680 10676 10672 10668 10664 10661 10659 10655 10653 10655 10654 10653 10653 10655 10657 10658 10660 10663 10666 10668 10670 10675 10681 10688 10692 10696 10699 10703
10761 10757 10753 10748 10744 10741 10737 10735 10733 10726 10719 10715 10711 10706 10702 10697 10693 10690 10685 10682 10678 10674 10670 10666 10661 10658 10656 10653 10649 10646 10645 10642 10638 10638 10638 10642 10646 10647 10649 10648 10650 10652 10657 10664 10670 10676 10681 10684 10688
10758 10754 10752 10748 10743 10739 10735 10731 10728 10725 10720 10714 10710 10705 10700 10696 10690 10684 10681 10677 10672 10667 10664 10659 10656 10652 10647 10644 10639 10637 10633 10632 10629 10623 10625 10625 10626 10627 10630 10629 10633 10637 10640 10645 10651 10658 10664 10669 10673
10753 10751 10748 10745 10742 10736 10732 10727 10724 10721 10718 10712 10707 10702 10698 10692 10687 10683 10677 10673 10667 10663 10658 10654 10651 10645 10641 10635 10632 10626 10622 10618 10616 10612 10611 10606 10606 10605 10606 10607 10609 10613 10619 10626 10631 10639 10647 10653 10657
10749 10747 10744 10741 10737 10734 10730 10725 10720 10716 10713 10709 10705 10700 10696 10690 10685 10680 10676 10669 10664 10659 10653 10650 10644 10638 10634 10629 10623 10617 10609 10605 10598 10592 10586 10586 10586 10580 10576 10576 10581 10586 10590 10601 10610 10618 10626 10634 10639
10746 10744 10741 10738 10733 10728 10726 10723 10718 10714 10710 10706 10702 10697 10693 10688 10683 10678 10672 10667 10661 10655 10649 10643 10637 10632 10627 10622 10615 10610 10602 10596 10590 10580 10574 10566 10562 10557 10552 10549 10547 10555 10563 10571 10585 10598 10605 10615 10622
10743 10740 10736 10733 10728 10724 10721 10719 10716 10711 10706 10701 10697 10694 10690 10685 10680 10675 10669 10663 10656 10651 10646 10639 10633 10626 10621 10614 10607 10600 10591 10583 10574 10566 10560 10550 10540 10533 10530 10523 10524 10529 10537 10549 10562 10575 10587 10596 10605
10740 10736 10731 10728 10725 10722 10718 10714 10712 10708 10704 10700 10695 10690 10685 10681 10676 10671 10665 10659 10653 10647 10640 10633 10626 10619 10612 10605 10597 10589 10580 10573 10563 10552 10540 10528 10517 10509 10500 10503 10506 10507 10515 10529 10541 10553 10568 10578 10587
10737 10734 10729 10724 10721 10719 10714 10710 10707 10705 10701 10697 10692 10687 10682 10678 10672 10667 10661 10655 10648 10641 10633 10626 10618 10611 10604 10596 10586 10576 10566 10554 10544 10531 10517 10507 10495 10483 10478 10475 10481 10490 10500 10511 10518 10532 10541 10558 10568
10733 10730 10726 10722 10717 10713 10708 10706 10704 10701 10697 10692 10688 10684 10679 10673 10667 10661 10655 10649 10642 10636 10627 10618 10611 10603 10595 10584 10574 10563 10551 10541 10528 10516 10502 10485 10473 10464 10456 10457 10460 10463 10468 10481 10494 10507 10519 10527 10544
10729 10725 10721 10718 10714 10710 10704 10701 10699 10696 10693 10688 10684 10679 10674 10668 10661 10655 10649 10643 10637 10630 10621 10613 10604 10595 10584 10573 10561 10548 10534 10521 10508 10492 10476 10463 10451 10441 10433 10431 10434 10438 10439 10448 10461 10476 10492 10502 10516
10724 10721 10717 10713 10709 10705 10701 10697 10693 10690 10686 10682 10678 10674 10669 10663 10657 10651 10644 10636 10629 10622 10614 10606 10596 10585 10574 10563 10551 10535 10519 10506 10486 10470 10455 10439 10424 10414 10407 10405 10405 10409 10410 10418 10429 10445 10457 10476 10492
10719 10715 10711 10708 10706 10702 10698 10693 10691 10687 10682 10678 10673 10669 10664 10658 10652 10646 10639 10631 10623 10615 10607 10597 10587 10575 10564 10552 10539 10522 10505 10488 10469 10450 10431 10415 10402 10392 10384 10380 10378 10382 10385 10389 10401 10414 10425 10446 10464
10714 10710 10705 10700 10699 10697 10693 10689 10686 10682 10678 10673 10669 10664 10659 10653 10647 10640 10633 10625 10617 10608 10598 10589 10577 10567 10554 10540 10523 10506 10491 10472 10450 10429 10408 10390 10377 10368 10361 10356 10353 10351 10354 10359 10371 10384 10394 10410 10436
10708 10704 10700 10695 10692 10689 10686 10682 10679 10675 10672 10668 10664 10660 10654 10648 10640 10634 10626 10619 10610 10600 10590 10580 10569 10556 10540 10525 10509 10490 10475 10454 10431 10409 10389 10368 10354 10344 10335 10330 10328 10324 10326 10329 10339 10353 10362 10381 10403
10702 10697 10694 10690 10687 10683 10679 10677 10674 10669 10665 10662 10659 10654 10648 10641 10634 10627 10620 10612 10603 10593 10583 10572 10559 10546 10532 10514 10495 10478 10456 10433 10413 10391 10371 10351 10336 10322 10312 10305 10303 10301 10302 10307 10312 10324 10337 10354 10372
10695 10692 10689 10686 10683 10678 10673 10670 10667 10662 10658 10655 10652 10647 10642 10634 10626 10620 10613 10605 10596 10586 10575 10564 10551 10536 10522 10504 10484 10467 10448 10425 10401 10377 10355 10337 10319 10305 10293 10287 10281 10278 10279 10285 10291 10299 10315 10330 10347
10688 10686 10684 10681 10677 10672 10668 10664 10659 10656 10652 10649 10644 10639 10634 10627 10621 10615 10606 10598 10588 10578 10567 10555 10543 10528 10513 10494 10475 10458 10438 10412 10387 10358 10337 10320 10306 10289 10273 10267 10261 10254 10257 10259 10268 10275 10287 10307 10321
10683 10681 10678 10675 10671 10667 10662 10656 10652 10649 10646 10642 10638 10634 10629 10621 10615 10608 10599 10591 10581 10571 10559 10547 10535 10520 10503 10482 10463 10443 10418 10390 10367 10344 10322 10299 10284 10272 10258 10247 10241 10235 10236 10240 10246 10255 10264 10278 10294
10679 10676 10673 10670 10666 10661 10656 10651 10642 10643 10642 10639 10635 10630 10622 10614 10607 10600 10592 10583 10574 10563 10552 10539 10526 10511 10493 10474 10456 10437 10414 10387 10361 10337 10313 10293 10276 10260 10245 10233 10225 10220 10217 10221 10228 10236 10245 10256 10272
10673 10671 10669 10665 10662 10656 10652 10648 10632 10636 10636 10635 10628 10622 10615 10607 10600 10593 10585 10575 10566 10556 10543 10531 10518 10502 10484 10463 10447 10426 10403 10375 10349 10322 10297 10276 10263 10248 10234 10220 10212 10207 10205 10205 10211 10218 10227 10237 10251
10667 10665 10663 10660 10656 10652 10646 10642 10625 10629 10629 10627 10620 10614 10606 10600 10593 10586 10577 10567 10558 10547 10535 10522 10508 10492 10475 10455 10438 10416 10396 10366 10340 10316 10290 10266 10249 10235 10224 10213 10203 10197 10195 10193 10196 10202 10210 10220 10233
10659 10658 10658 10656 10651 10647 10640 10635 10623 10621 10621 10618 10613 10606 10598 10592 10586 10578 10569 10560 10550 10538 10526 10512 10497 10482 10464 10446 10426 10405 10386 10359 10333 10309 10287 10265 10242 10226 10212 10201 10193 10189 10183 10181 10181 10186 10193 10201 10217
10652 10650 10650 10649 10645 10642 10635 10629 10616 10613 10614 10609 10606 10600 10592 10585 10579 10571 10561 10552 10541 10529 10516 10503 10487 10471 10454 10436 10419 10398 10377 10350 10324 10304 10281 10258 10240 10224 10208 10196 10185 10179 10175 10171 10170 10173 10179 10188 10200
10642 10641 10640 10639 10637 10635 10628 10621 10607 10607 10607 10602 10598 10591 10584 10577 10570 10563 10553 10543 10532 10520 10507 10494 10478 10461 10444 10429 10409 10390 10368 10344 10317 10298 10273 10252 10234 10217 10202 10190 10181 10172 10167 10163 10161 10162 10166 10174 10185
10636 10633 10633 10630 10630 10627 10622 10614 10600 10600 10599 10594 10589 10582 10575 10569 10561 10552 10543 10534 10523 10511 10499 10485 10469 10451 10436 10419 10401 10382 10358 10335 10313 10291 10269 10247 10228 10213 10196 10182 10173 10165 10159 10156 10154 10152 10155 10161 10170
10628 10625 10625 10623 10621 10619 10614 10603 10598 10594 10592 10589 10581 10574 10567 10561 10554 10545 10536 10525 10515 10502 10490 10476 10460 10443 10428 10410 10394 10375 10352 10330 10307 10285 10262 10241 10224 10206 10190 10175 10165 10158 10152 10147 10146 10146 10144 10149 10157
10619 10617 10616 10614 10613 10608 10606 10592 10593 10588 10588 10583 10576 10568 10561 10554 10547 10538 10527 10516 10505 10493 10481 10466 10451 10434 10420 10402 10385 10365 10345 10325 10304 10281 10255 10234 10218 10201 10185 10171 10158 10150 10143 10139 10137 10137 10137 10139 10145